Weather History for Cut Bank, MT

Change the Weather History Date:

Sunday, May 25, 2014

  Actual Average Record
Temperature  
Mean Temperature 60 °F 53 °F  
Max Temperature 71 °F 65 °F 90 °F (1928)
Min Temperature 48 °F 40 °F 25 °F (1904)
Degree Days  
Heating Degree Days 5 13  
Month to date heating degree days 402 400  
Since 1 July heating degree days 8537 8220  
Cooling Degree Days 0 0  
Month to date cooling degree days 0 0  
Year to date cooling degree days 0 0  
Growing Degree Days 10 (Base 50)    
Moisture  
Dew Point 40 °F    
Average Humidity 51    
Maximum Humidity 71    
Minimum Humidity 30    
Precipitation  
Precipitation 0.00 in 0.08 in 1.54 in (1997)
Month to date precipitation 0.57 1.42  
Year to date precipitation 4.07 3.11  
Snow  
Snow 0.00 in - - ()
Snow Depth 0.00 in    
Sea Level Pressure  
Sea Level Pressure 29.92 in    
Wind  
Wind Speed 8 mph (WNW)    
Max Wind Speed 20 mph    
Max Gust Speed 23 mph    
Visibility 10 miles    
Events      
T = Trace of Precipitation, MM = Missing Value Source: NWS Daily Summary

Daily Weather History Graph

Daily Weather History Graph

Search for Another Location

Airport:

Trip Planner

Search our weather history database for the weather conditions in past years. The results will help you decide how hot, cold, wet, or windy it might be!

Date:

Astronomy

May. 25, 2014 Rise Set
Actual Time 5:37 AM MDT 9:16 PM MDT
Civil Twilight 4:57 AM MDT 9:56 PM MDT
Nautical Twilight 4:04 AM MDT 10:49 PM MDT
Astronomical Twilight 2:49 AM MDT 12:06 AM MDT
Moon 4:01 AM MDT 6:06 PM MDT
Length of Visible Light 16h 58m
Length of Day
15h 39m
Waning Crescent, 10% of the Moon is Illuminated
May 25
Waning Crescent
May 28
New
Jun 5
First Quarter
Jun 12
Full
Jun 19
Last Quarter

Hourly Weather History & Observations

Time (MDT) Temp. Dew Point Humidity Pressure Visibility Wind Dir Wind Speed Gust Speed Precip Events Conditions
1:56 AM 54.0 °F 42.1 °F 64% 29.94 in 10.0 mi WSW 10.4 mph - N/A   Partly Cloudy
2:56 AM 55.0 °F 42.1 °F 62% 29.94 in 10.0 mi West 15.0 mph - N/A   Overcast
3:56 AM 55.9 °F 41.0 °F 57% 29.95 in 10.0 mi West 13.8 mph - N/A   Overcast
4:56 AM 53.1 °F 39.9 °F 61% 29.96 in 10.0 mi West 11.5 mph - N/A   Overcast
5:56 AM 48.9 °F 39.0 °F 69% 29.97 in 10.0 mi NNW 11.5 mph - N/A   Mostly Cloudy
6:56 AM 50.0 °F 41.0 °F 71% 29.99 in 10.0 mi NW 11.5 mph - N/A   Clear
7:56 AM 53.1 °F 44.1 °F 71% 29.99 in 10.0 mi WNW 12.7 mph - N/A   Clear
8:56 AM 57.2 °F 44.6 °F 63% 30.04 in 10.0 mi NW 12.7 mph - N/A   Clear
9:56 AM 60.1 °F 43.0 °F 53% 29.99 in 10.0 mi NW 10.4 mph - N/A   Clear
10:56 AM 62.1 °F 42.1 °F 48% 29.99 in 10.0 mi NNW 5.8 mph - N/A   Clear
11:56 AM 63.0 °F 37.9 °F 40% 29.97 in 10.0 mi Variable 4.6 mph - N/A   Partly Cloudy
12:56 PM 64.9 °F 36.0 °F 34% 29.96 in 10.0 mi Variable 5.8 mph - N/A   Clear
1:56 PM 68.0 °F 36.0 °F 31% 29.93 in 10.0 mi SW 6.9 mph - N/A   Scattered Clouds
2:56 PM 68.0 °F 37.9 °F 33% 29.90 in 10.0 mi SSW 6.9 mph - N/A   Partly Cloudy
3:56 PM 70.0 °F 37.0 °F 30% 29.87 in 10.0 mi WNW 3.5 mph - N/A   Clear
4:56 PM 71.1 °F 39.0 °F 31% 29.85 in 10.0 mi SE 6.9 mph - N/A   Scattered Clouds
5:56 PM 69.1 °F 39.9 °F 35% 29.86 in 10.0 mi Calm Calm - N/A   Mostly Cloudy
6:56 PM 68.0 °F 39.0 °F 35% 29.84 in 10.0 mi Calm Calm - N/A   Overcast
7:56 PM 64.0 °F 36.0 °F 35% 29.85 in 10.0 mi NW 8.1 mph - N/A   Overcast
8:56 PM 60.8 °F 37.4 °F 42% 29.90 in 10.0 mi NW 9.2 mph - N/A   Overcast
9:56 PM 61.0 °F 37.9 °F 42% 29.85 in 10.0 mi North 5.8 mph - N/A   Overcast
10:56 PM 60.1 °F 39.9 °F 47% 29.85 in 10.0 mi ENE 4.6 mph - N/A   Mostly Cloudy
11:56 PM 59.0 °F 39.9 °F 49% 29.84 in 10.0 mi Calm Calm - N/A   Scattered Clouds